Time,TemperatureF,DewpointF,PressureIn,WindDirection,WindDirectionDegrees,WindSpeedMPH,WindSpeedGustMPH,Humidity,HourlyPrecipIn,Conditions,Clouds,dailyrainin,SoftwareType,DateUTC
2013-05-17 00:03:00,55.0,48.0,29.94,SSW,198,6.0,12.0,78,0.00,,,0.00,weatherlink.com 1.10,2013-05-17 07:03:00,
2013-05-17 00:18:00,54.6,48.0,29.94,SE,144,2.0,7.0,79,0.00,,,0.00,weatherlink.com 1.10,2013-05-17 07:18:00,
2013-05-17 00:33:00,54.4,48.0,29.94,South,180,3.0,5.0,80,0.00,,,0.00,weatherlink.com 1.10,2013-05-17 07:33:00,
2013-05-17 00:48:00,54.1,48.0,29.94,South,173,2.0,8.0,81,0.00,,,0.00,weatherlink.com 1.10,2013-05-17 07:48:00,
2013-05-17 01:03:00,54.0,49.0,29.94,South,170,2.0,7.0,82,0.00,,,0.00,weatherlink.com 1.10,2013-05-17 08:03:00,
2013-05-17 01:18:00,54.0,49.0,29.94,SE,139,1.0,6.0,83,0.00,,,0.00,weatherlink.com 1.10,2013-05-17 08:18:00,
2013-05-17 01:33:00,53.8,49.0,29.95,SSE,148,2.0,4.0,84,0.00,,,0.00,weatherlink.com 1.10,2013-05-17 08:33:00,
2013-05-17 01:48:00,53.5,49.0,29.95,SSE,155,3.0,5.0,84,0.00,,,0.00,weatherlink.com 1.10,2013-05-17 08:48:00,
2013-05-17 02:03:00,53.5,49.0,29.94,South,178,3.0,5.0,84,0.00,,,0.00,weatherlink.com 1.10,2013-05-17 09:03:00,
2013-05-17 02:18:00,53.2,49.0,29.94,South,173,2.0,6.0,85,0.00,,,0.00,weatherlink.com 1.10,2013-05-17 09:18:00,
2013-05-17 02:33:00,53.3,49.0,29.93,SSE,148,2.0,7.0,85,0.00,,,0.00,weatherlink.com 1.10,2013-05-17 09:33:00,
2013-05-17 02:48:00,53.2,49.0,29.93,South,184,3.0,6.0,84,0.00,,,0.00,weatherlink.com 1.10,2013-05-17 09:48:00,
2013-05-17 03:03:00,52.8,48.0,29.93,SSE,157,2.0,6.0,85,0.00,,,0.00,weatherlink.com 1.10,2013-05-17 10:03:00,
2013-05-17 03:18:00,52.5,48.0,29.93,SSE,159,1.0,7.0,85,0.00,,,0.00,weatherlink.com 1.10,2013-05-17 10:18:00,
2013-05-17 03:33:00,51.9,48.0,29.93,SSE,147,1.0,5.0,86,0.00,,,0.00,weatherlink.com 1.10,2013-05-17 10:33:00,
2013-05-17 03:48:00,52.0,48.0,29.94,South,175,2.0,5.0,85,0.00,,,0.00,weatherlink.com 1.10,2013-05-17 10:48:00,
2013-05-17 04:03:00,51.6,48.0,29.94,SSE,166,0.0,4.0,86,0.00,,,0.00,weatherlink.com 1.10,2013-05-17 11:03:00,
2013-05-17 04:18:00,51.5,47.0,29.95,South,171,2.0,6.0,85,0.00,,,0.00,weatherlink.com 1.10,2013-05-17 11:18:00,
2013-05-17 04:33:00,51.6,47.0,29.94,SE,137,2.0,7.0,84,0.00,,,0.00,weatherlink.com 1.10,2013-05-17 11:33:00,
2013-05-17 04:48:00,51.4,47.0,29.94,South,189,3.0,6.0,85,0.00,,,0.00,weatherlink.com 1.10,2013-05-17 11:48:00,
2013-05-17 05:03:00,51.1,47.0,29.94,SSE,166,0.0,5.0,85,0.00,,,0.00,weatherlink.com 1.10,2013-05-17 12:03:00,
2013-05-17 05:18:00,51.0,47.0,29.95,SSE,167,4.0,5.0,86,0.00,,,0.00,weatherlink.com 1.10,2013-05-17 12:18:00,
2013-05-17 05:33:00,50.6,47.0,29.95,SSE,155,2.0,5.0,86,0.00,,,0.00,weatherlink.com 1.10,2013-05-17 12:33:00,
2013-05-17 05:48:00,50.2,47.0,29.95,SSE,166,3.0,4.0,87,0.00,,,0.00,weatherlink.com 1.10,2013-05-17 12:48:00,
2013-05-17 06:03:00,50.0,46.0,29.95,South,180,3.0,4.0,87,0.00,,,0.00,weatherlink.com 1.10,2013-05-17 13:03:00,
2013-05-17 06:19:00,49.9,47.0,29.96,SSE,164,3.0,5.0,88,0.00,,,0.00,weatherlink.com 1.10,2013-05-17 13:19:00,
2013-05-17 06:34:00,50.5,47.0,29.96,SSE,166,1.0,5.0,87,0.00,,,0.00,weatherlink.com 1.10,2013-05-17 13:34:00,
2013-05-17 06:49:00,51.5,47.0,29.97,South,180,3.0,6.0,85,0.00,,,0.00,weatherlink.com 1.10,2013-05-17 13:49:00,
2013-05-17 07:04:00,52.6,48.0,29.97,SSW,201,2.0,5.0,83,0.00,,,0.00,weatherlink.com 1.10,2013-05-17 14:04:00,
2013-05-17 07:19:00,53.6,48.0,29.97,SSW,203,1.0,6.0,81,0.00,,,0.00,weatherlink.com 1.10,2013-05-17 14:19:00,
2013-05-17 07:34:00,54.5,48.0,29.97,SW,234,2.0,7.0,80,0.00,,,0.00,weatherlink.com 1.10,2013-05-17 14:34:00,
2013-05-17 07:49:00,55.7,49.0,29.98,SSW,205,4.0,8.0,77,0.00,,,0.00,weatherlink.com 1.10,2013-05-17 14:49:00,
2013-05-17 08:04:00,56.8,49.0,29.98,SSW,209,6.0,9.0,76,0.00,,,0.00,weatherlink.com 1.10,2013-05-17 15:04:00,
2013-05-17 08:19:00,58.1,50.0,29.98,WSW,244,4.0,8.0,74,0.00,,,0.00,weatherlink.com 1.10,2013-05-17 15:19:00,
2013-05-17 08:34:00,59.3,51.0,29.98,SW,225,4.0,8.0,73,0.00,,,0.00,weatherlink.com 1.10,2013-05-17 15:34:00,
2013-05-17 08:49:00,61.2,50.0,29.98,SW,217,8.0,10.0,67,0.00,,,0.00,weatherlink.com 1.10,2013-05-17 15:49:00,
2013-05-17 09:04:00,60.9,51.0,29.98,SW,217,4.0,8.0,69,0.00,,,0.00,weatherlink.com 1.10,2013-05-17 16:04:00,
2013-05-17 09:19:00,61.9,51.0,29.98,SW,224,4.0,10.0,67,0.00,,,0.00,weatherlink.com 1.10,2013-05-17 16:19:00,
2013-05-17 09:34:00,63.0,51.0,29.98,West,278,3.0,7.0,66,0.00,,,0.00,weatherlink.com 1.10,2013-05-17 16:34:00,
2013-05-17 09:49:00,63.8,52.0,29.98,WSW,257,3.0,7.0,65,0.00,,,0.00,weatherlink.com 1.10,2013-05-17 16:49:00,
2013-05-17 10:04:00,64.7,53.0,29.98,WSW,239,4.0,8.0,66,0.00,,,0.00,weatherlink.com 1.10,2013-05-17 17:04:00,
2013-05-17 10:20:00,65.0,52.0,29.98,West,264,3.0,8.0,64,0.00,,,0.00,weatherlink.com 1.10,2013-05-17 17:20:00,
2013-05-17 10:35:00,65.8,51.0,29.98,WSW,244,3.0,9.0,60,0.00,,,0.00,weatherlink.com 1.10,2013-05-17 17:35:00,
2013-05-17 10:50:00,66.6,52.0,29.99,SSW,205,3.0,9.0,59,0.00,,,0.00,weatherlink.com 1.10,2013-05-17 17:50:00,
2013-05-17 11:05:00,67.3,52.0,29.99,WSW,257,2.0,8.0,58,0.00,,,0.00,weatherlink.com 1.10,2013-05-17 18:05:00,
2013-05-17 11:20:00,68.0,51.0,29.99,SSW,212,4.0,9.0,55,0.00,,,0.00,weatherlink.com 1.10,2013-05-17 18:20:00,
2013-05-17 11:35:00,68.5,53.0,29.99,West,279,3.0,8.0,58,0.00,,,0.00,weatherlink.com 1.10,2013-05-17 18:35:00,
2013-05-17 11:50:00,69.1,52.0,29.99,WSW,249,8.0,10.0,54,0.00,,,0.00,weatherlink.com 1.10,2013-05-17 18:50:00,
2013-05-17 12:05:00,69.5,52.0,29.99,SSE,155,5.0,8.0,54,0.00,,,0.00,weatherlink.com 1.10,2013-05-17 19:05:00,
2013-05-17 12:20:00,69.8,51.0,29.99,SSW,211,2.0,10.0,52,0.00,,,0.00,weatherlink.com 1.10,2013-05-17 19:20:00,
2013-05-17 12:35:00,70.4,51.0,29.99,SSW,207,6.0,10.0,50,0.00,,,0.00,weatherlink.com 1.10,2013-05-17 19:35:00,
2013-05-17 12:50:00,70.8,51.0,29.98,SSW,211,7.0,12.0,50,0.00,,,0.00,weatherlink.com 1.10,2013-05-17 19:50:00,
2013-05-17 13:05:00,71.8,51.0,29.98,SSW,212,4.0,10.0,49,0.00,,,0.00,weatherlink.com 1.10,2013-05-17 20:05:00,
2013-05-17 13:20:00,71.7,47.0,29.98,SSW,196,2.0,10.0,42,0.00,,,0.00,weatherlink.com 1.10,2013-05-17 20:20:00,
2013-05-17 13:35:00,72.3,49.0,29.98,WSW,242,5.0,7.0,44,0.00,,,0.00,weatherlink.com 1.10,2013-05-17 20:35:00,
2013-05-17 13:50:00,72.4,47.0,29.98,SW,223,6.0,11.0,41,0.00,,,0.00,weatherlink.com 1.10,2013-05-17 20:50:00,
2013-05-17 14:05:00,72.9,48.0,29.98,SSE,167,6.0,9.0,41,0.00,,,0.00,weatherlink.com 1.10,2013-05-17 21:05:00,
2013-05-17 14:20:00,73.9,47.0,29.98,WSW,244,4.0,9.0,38,0.00,,,0.00,weatherlink.com 1.10,2013-05-17 21:20:00,
2013-05-17 14:36:00,74.4,46.0,29.97,SSW,212,6.0,8.0,36,0.00,,,0.00,weatherlink.com 1.10,2013-05-17 21:36:00,
2013-05-17 14:51:00,74.3,46.0,29.97,SW,217,6.0,9.0,37,0.00,,,0.00,weatherlink.com 1.10,2013-05-17 21:51:00,
2013-05-17 15:06:00,74.7,47.0,29.97,West,266,3.0,9.0,37,0.00,,,0.00,weatherlink.com 1.10,2013-05-17 22:06:00,
2013-05-17 15:21:00,75.7,47.0,29.96,South,169,5.0,8.0,36,0.00,,,0.00,weatherlink.com 1.10,2013-05-17 22:21:00,
2013-05-17 15:36:00,75.8,48.0,29.96,SW,236,8.0,11.0,37,0.00,,,0.00,weatherlink.com 1.10,2013-05-17 22:36:00,
2013-05-17 15:51:00,76.5,50.0,29.96,West,277,9.0,9.0,39,0.00,,,0.00,weatherlink.com 1.10,2013-05-17 22:51:00,
2013-05-17 16:06:00,75.6,47.0,29.96,SSW,209,5.0,13.0,37,0.00,,,0.00,weatherlink.com 1.10,2013-05-17 23:06:00,
2013-05-17 16:21:00,75.4,47.0,29.96,WSW,248,5.0,12.0,37,0.00,,,0.00,weatherlink.com 1.10,2013-05-17 23:21:00,
2013-05-17 16:36:00,75.5,47.0,29.96,SSW,207,9.0,10.0,37,0.00,,,0.00,weatherlink.com 1.10,2013-05-17 23:36:00,
2013-05-17 16:51:00,74.9,47.0,29.96,SSW,211,4.0,14.0,37,0.00,,,0.00,weatherlink.com 1.10,2013-05-17 23:51:00,
2013-05-17 17:06:00,74.5,46.0,29.96,WSW,242,6.0,12.0,37,0.00,,,0.00,weatherlink.com 1.10,2013-05-18 00:06:00,
2013-05-17 17:21:00,73.5,45.0,29.95,South,182,4.0,16.0,36,0.00,,,0.00,weatherlink.com 1.10,2013-05-18 00:21:00,
2013-05-17 17:36:00,72.4,44.0,29.96,SW,218,13.0,14.0,36,0.00,,,0.00,weatherlink.com 1.10,2013-05-18 00:36:00,
2013-05-17 17:51:00,71.3,42.0,29.96,WSW,249,12.0,17.0,35,0.00,,,0.00,weatherlink.com 1.10,2013-05-18 00:51:00,
2013-05-17 18:06:00,70.4,45.0,29.96,SSW,199,7.0,15.0,40,0.00,,,0.00,weatherlink.com 1.10,2013-05-18 01:06:00,
2013-05-17 18:21:00,69.6,45.0,29.96,SW,215,6.0,14.0,41,0.00,,,0.00,weatherlink.com 1.10,2013-05-18 01:21:00,
2013-05-17 18:36:00,68.7,45.0,29.96,SW,232,12.0,15.0,43,0.00,,,0.00,weatherlink.com 1.10,2013-05-18 01:36:00,
2013-05-17 18:51:00,67.2,44.0,29.96,SW,229,5.0,16.0,43,0.00,,,0.00,weatherlink.com 1.10,2013-05-18 01:51:00,
2013-05-17 19:06:00,66.0,43.0,29.97,SSW,196,5.0,16.0,44,0.00,,,0.00,weatherlink.com 1.10,2013-05-18 02:06:00,
2013-05-17 19:21:00,64.9,43.0,29.97,SSW,193,11.0,14.0,45,0.00,,,0.00,weatherlink.com 1.10,2013-05-18 02:21:00,
2013-05-17 19:36:00,63.8,42.0,29.98,SSW,193,11.0,15.0,46,0.00,,,0.00,weatherlink.com 1.10,2013-05-18 02:36:00,
2013-05-17 19:51:00,62.6,42.0,29.98,SW,221,5.0,20.0,48,0.00,,,0.00,weatherlink.com 1.10,2013-05-18 02:51:00,
2013-05-17 20:06:00,61.5,41.0,29.99,SSW,212,5.0,16.0,48,0.00,,,0.00,weatherlink.com 1.10,2013-05-18 03:06:00,
2013-05-17 20:21:00,60.6,43.0,29.99,SSW,198,5.0,15.0,52,0.00,,,0.00,weatherlink.com 1.10,2013-05-18 03:21:00,
2013-05-17 20:36:00,59.8,42.0,29.99,SSW,213,3.0,11.0,53,0.00,,,0.00,weatherlink.com 1.10,2013-05-18 03:36:00,
2013-05-17 20:51:00,59.2,43.0,29.99,SSW,208,4.0,9.0,55,0.00,,,0.00,weatherlink.com 1.10,2013-05-18 03:51:00,
2013-05-17 21:06:00,58.4,43.0,30.00,SW,221,11.0,16.0,57,0.00,,,0.00,weatherlink.com 1.10,2013-05-18 04:06:00,
2013-05-17 21:21:00,57.9,43.0,30.00,SW,215,6.0,10.0,57,0.00,,,0.00,weatherlink.com 1.10,2013-05-18 04:21:00,
2013-05-17 21:36:00,57.5,43.0,30.01,SSW,197,4.0,10.0,59,0.00,,,0.00,weatherlink.com 1.10,2013-05-18 04:36:00,
2013-05-17 21:51:00,57.1,44.0,30.02,South,178,5.0,9.0,61,0.00,,,0.00,weatherlink.com 1.10,2013-05-18 04:51:00,
2013-05-17 22:06:00,56.8,44.0,30.02,South,185,1.0,8.0,62,0.00,,,0.00,weatherlink.com 1.10,2013-05-18 05:06:00,
2013-05-17 22:21:00,56.3,43.0,30.02,SW,228,3.0,7.0,62,0.00,,,0.00,weatherlink.com 1.10,2013-05-18 05:21:00,
2013-05-17 22:36:00,56.0,44.0,30.03,South,178,4.0,7.0,64,0.00,,,0.00,weatherlink.com 1.10,2013-05-18 05:36:00,
2013-05-17 22:51:00,55.6,44.0,30.03,SSW,196,4.0,7.0,66,0.00,,,0.00,weatherlink.com 1.10,2013-05-18 05:51:00,
2013-05-17 23:06:00,55.3,44.0,30.03,South,184,3.0,6.0,67,0.00,,,0.00,weatherlink.com 1.10,2013-05-18 06:06:00,
2013-05-17 23:21:00,55.0,45.0,30.03,South,184,1.0,6.0,68,0.00,,,0.00,weatherlink.com 1.10,2013-05-18 06:21:00,
2013-05-17 23:36:00,54.7,45.0,30.03,SSE,161,2.0,7.0,71,0.00,,,0.00,weatherlink.com 1.10,2013-05-18 06:36:00,
2013-05-17 23:51:00,54.3,45.0,30.03,SSE,163,1.0,7.0,71,0.00,,,0.00,weatherlink.com 1.10,2013-05-18 06:51:00,